| time (UTC) | temp C | wind direction | speed KPH | gust KPH | rain 1hr cm | rain 24hr cm | rain mn cm | humidity % | barometer mb |
| 20260504081550 | 17 | 123 | 6.4 | 12.9 | 0.00 | 0.30 | 0.00 | 42 | 1019.1 |
| 20260504081031 | 17 | 128 | 8.0 | 12.9 | 0.00 | 0.30 | 0.00 | 43 | 1019.1 |
| 20260504080542 | 17 | 115 | 3.2 | 12.9 | 0.00 | 0.30 | 0.00 | 43 | 1019.1 |
| 20260504050537 | 11 | 34 | 8.0 | 19.3 | 0.00 | 0.30 | 0.00 | 58 | 1019.3 |
| 20260504045532 | 10 | 51 | 9.7 | 20.9 | 0.00 | 0.30 | 0.00 | 58 | 1019.4 |
| 20260504045031 | 10 | 28 | 11.3 | 20.9 | 0.00 | 0.30 | 0.00 | 58 | 1019.3 |
| 20260504044528 | 10 | 64 | 12.9 | 22.5 | 0.00 | 0.30 | 0.00 | 59 | 1019.3 |
| 20260504044038 | 10 | 20 | 11.3 | 20.9 | 0.00 | 0.30 | 0.00 | 59 | 1019.3 |
| 20260504043532 | 10 | 25 | 9.7 | 19.3 | 0.00 | 0.30 | 0.00 | 58 | 1019.3 |
| 20260504043032 | 10 | 30 | 11.3 | 24.1 | 0.00 | 0.30 | 0.00 | 59 | 1019.2 |
| 20260504042538 | 10 | 17 | 12.9 | 24.1 | 0.00 | 0.30 | 0.00 | 59 | 1019.2 |
| 20260504042105 | 10 | 18 | 12.9 | 22.5 | 0.00 | 0.30 | 0.00 | 59 | 1019.3 |
| 20260504041540 | 10 | 46 | 11.3 | 27.4 | 0.00 | 0.30 | 0.00 | 59 | 1019.3 |
| 20260504041036 | 10 | 13 | 14.5 | 20.9 | 0.00 | 0.30 | 0.00 | 58 | 1019.3 |
| 20260504040529 | 10 | 32 | 11.3 | 20.9 | 0.00 | 0.30 | 0.00 | 58 | 1019.3 |
| 20260504040035 | 9 | 19 | 9.7 | 19.3 | 0.00 | 0.30 | 0.00 | 59 | 1019.3 |
| 20260504035538 | 10 | 24 | 9.7 | 17.7 | 0.00 | 0.30 | 0.00 | 59 | 1019.3 |
| 20260504035033 | 10 | 24 | 6.4 | 14.5 | 0.00 | 0.30 | 0.00 | 59 | 1019.3 |
| 20260504034546 | 10 | 13 | 8.0 | 14.5 | 0.00 | 0.30 | 0.00 | 59 | 1019.4 |
| 20260504034107 | 10 | 47 | 6.4 | 14.5 | 0.00 | 0.30 | 0.00 | 59 | 1019.2 |
| 20260504033529 | 9 | 46 | 6.4 | 16.1 | 0.00 | 0.30 | 0.00 | 60 | 1019.2 |
| 20260504033038 | 9 | 9 | 8.0 | 16.1 | 0.00 | 0.30 | 0.00 | 60 | 1019.2 |
| 20260504032532 | 9 | 40 | 8.0 | 14.5 | 0.00 | 0.30 | 0.00 | 60 | 1019.1 |
| 20260504032039 | 9 | 5 | 6.4 | 17.7 | 0.00 | 0.30 | 0.00 | 60 | 1019.0 |
| 20260504031529 | 9 | 5 | 8.0 | 17.7 | 0.00 | 0.30 | 0.00 | 60 | 1018.9 |
| 20260504031030 | 9 | 82 | 6.4 | 14.5 | 0.00 | 0.30 | 0.00 | 61 | 1018.9 |
| 20260504030544 | 9 | 39 | 4.8 | 9.7 | 0.00 | 0.30 | 0.00 | 61 | 1019.0 |
| 20260504030034 | 9 | 11 | 3.2 | 9.7 | 0.00 | 0.30 | 0.00 | 61 | 1019.0 |
| 20260504025539 | 9 | 28 | 4.8 | 9.7 | 0.00 | 0.30 | 0.00 | 61 | 1019.0 |
| 20260504025045 | 9 | 5 | 4.8 | 9.7 | 0.00 | 0.30 | 0.00 | 60 | 1019.0 |
| 20260504024554 | 9 | 28 | 3.2 | 12.9 | 0.00 | 0.30 | 0.00 | 60 | 1018.9 |
| 20260504024027 | 9 | 17 | 8.0 | 12.9 | 0.00 | 0.30 | 0.00 | 60 | 1018.9 |
| 20260504023538 | 9 | 19 | 4.8 | 9.7 | 0.00 | 0.30 | 0.00 | 59 | 1019.0 |
| 20260504023028 | 9 | 5 | 1.6 | 8.0 | 0.00 | 0.30 | 0.00 | 59 | 1018.9 |
| 20260504022600 | 9 | 5 | 3.2 | 9.7 | 0.00 | 0.30 | 0.00 | 58 | 1018.9 |
| 20260504022036 | 9 | 38 | 4.8 | 12.9 | 0.00 | 0.30 | 0.00 | 58 | 1018.7 |
| 20260504021550 | 9 | 15 | 4.8 | 12.9 | 0.00 | 0.30 | 0.00 | 56 | 1018.8 |
| 20260504021044 | 10 | 23 | 6.4 | 14.5 | 0.00 | 0.30 | 0.00 | 56 | 1018.7 |
| 20260504020543 | 10 | 30 | 4.8 | 14.5 | 0.00 | 0.30 | 0.00 | 55 | 1018.7 |
| 20260504020045 | 10 | 18 | 4.8 | 12.9 | 0.00 | 0.30 | 0.00 | 54 | 1018.7 |
| 20260504015534 | 10 | 360 | 6.4 | 12.9 | 0.00 | 0.30 | 0.00 | 54 | 1018.7 |
| 20260504015047 | 10 | 22 | 8.0 | 12.9 | 0.00 | 0.30 | 0.00 | 53 | 1018.7 |
| 20260504014539 | 10 | 14 | 6.4 | 12.9 | 0.00 | 0.30 | 0.00 | 53 | 1018.6 |
| 20260504014045 | 10 | 31 | 4.8 | 12.9 | 0.00 | 0.30 | 0.00 | 53 | 1018.5 |
| 20260504013541 | 10 | 28 | 6.4 | 12.9 | 0.00 | 0.30 | 0.00 | 54 | 1018.5 |
| 20260504013038 | 10 | 24 | 6.4 | 14.5 | 0.00 | 0.30 | 0.00 | 54 | 1018.5 |
| 20260504012614 | 10 | 26 | 6.4 | 17.7 | 0.00 | 0.30 | 0.00 | 54 | 1018.6 |
| 20260504012129 | 10 | 41 | 9.7 | 16.1 | 0.00 | 0.30 | 0.00 | 53 | 1018.5 |
| 20260504011546 | 10 | 11 | 8.0 | 16.1 | 0.00 | 0.30 | 0.00 | 53 | 1018.6 |
| 20260504011059 | 10 | 351 | 4.8 | 11.3 | 0.00 | 0.30 | 0.00 | 53 | 1018.5 |
| 20260504010534 | 10 | 324 | 4.8 | 14.5 | 0.00 | 0.30 | 0.00 | 53 | 1018.4 |
| 20260504010036 | 10 | 12 | 4.8 | 14.5 | 0.00 | 0.30 | 0.00 | 52 | 1018.4 |
| 20260504005546 | 10 | 13 | 6.4 | 14.5 | 0.00 | 0.30 | 0.00 | 52 | 1018.4 |
| 20260504005056 | 10 | 347 | 4.8 | 19.3 | 0.00 | 0.30 | 0.00 | 52 | 1018.3 |
| 20260504004551 | 10 | 32 | 6.4 | 19.3 | 0.00 | 0.30 | 0.00 | 53 | 1018.3 |
| 20260504004045 | 10 | 30 | 6.4 | 19.3 | 0.00 | 0.30 | 0.00 | 52 | 1018.2 |
| 20260504003534 | 10 | 55 | 9.7 | 19.3 | 0.00 | 0.30 | 0.00 | 53 | 1018.1 |
| 20260504003028 | 10 | 360 | 8.0 | 24.1 | 0.00 | 0.30 | 0.00 | 53 | 1018.1 |
| 20260504002600 | 10 | 44 | 11.3 | 24.1 | 0.00 | 0.30 | 0.00 | 53 | 1018.1 |
| 20260504002128 | 10 | 17 | 9.7 | 19.3 | 0.00 | 0.30 | 0.00 | 53 | 1018.1 |
| 20260504001535 | 10 | 17 | 12.9 | 19.3 | 0.00 | 0.30 | 0.00 | 53 | 1018.1 |
| 20260504001042 | 10 | 9 | 9.7 | 17.7 | 0.00 | 0.30 | 0.00 | 53 | 1018.2 |
| 20260504000532 | 10 | 46 | 9.7 | 16.1 | 0.00 | 0.30 | 0.00 | 54 | 1018.3 |
| 20260504000032 | 10 | 5 | 9.7 | 16.1 | 0.00 | 0.30 | 0.00 | 54 | 1018.4 |
| 20260503235549 | 10 | 52 | 9.7 | 16.1 | 0.00 | 0.30 | 0.00 | 54 | 1018.4 |
| 20260503235030 | 10 | 5 | 9.7 | 12.9 | 0.00 | 0.30 | 0.00 | 54 | 1018.4 |
| 20260503234545 | 10 | 355 | 6.4 | 12.9 | 0.00 | 0.30 | 0.00 | 54 | 1018.4 |
| 20260503234027 | 10 | 20 | 8.0 | 12.9 | 0.00 | 0.30 | 0.00 | 54 | 1018.4 |
| 20260503233600 | 10 | 29 | 6.4 | 12.9 | 0.00 | 0.30 | 0.00 | 54 | 1018.5 |
| 20260503233039 | 10 | 360 | 4.8 | 12.9 | 0.00 | 0.30 | 0.00 | 54 | 1018.6 |
| 20260503232530 | 10 | 33 | 6.4 | 12.9 | 0.00 | 0.30 | 0.00 | 53 | 1018.7 |
| 20260503232034 | 10 | 23 | 6.4 | 12.9 | 0.00 | 0.30 | 0.00 | 53 | 1018.8 |
| 20260503231538 | 10 | 26 | 6.4 | 9.7 | 0.00 | 0.30 | 0.00 | 53 | 1018.9 |
| 20260503231031 | 10 | 28 | 6.4 | 14.5 | 0.00 | 0.30 | 0.00 | 53 | 1018.8 |
| 20260503230544 | 10 | 15 | 6.4 | 14.5 | 0.00 | 0.30 | 0.00 | 53 | 1018.9 |
| 20260503230044 | 10 | 11 | 8.0 | 12.9 | 0.00 | 0.30 | 0.00 | 53 | 1018.8 |
| 20260503225558 | 10 | 37 | 8.0 | 12.9 | 0.00 | 0.30 | 0.00 | 53 | 1018.9 |
| 20260503225028 | 10 | 33 | 4.8 | 16.1 | 0.00 | 0.30 | 0.00 | 53 | 1018.8 |
| 20260503224533 | 10 | 34 | 4.8 | 16.1 | 0.00 | 0.30 | 0.00 | 52 | 1018.8 |
| 20260503224040 | 10 | 20 | 6.4 | 12.9 | 0.00 | 0.30 | 0.00 | 52 | 1018.8 |
| 20260503223554 | 10 | 32 | 4.8 | 12.9 | 0.00 | 0.30 | 0.00 | 52 | 1018.7 |
| 20260503223134 | 10 | 27 | 4.8 | 9.7 | 0.00 | 0.30 | 0.00 | 51 | 1018.7 |
| 20260503222549 | 11 | 355 | 4.8 | 11.3 | 0.00 | 0.30 | 0.00 | 50 | 1018.8 |
| 20260503222033 | 11 | 54 | 6.4 | 11.3 | 0.00 | 0.30 | 0.00 | 49 | 1018.7 |
| 20260503221544 | 11 | 61 | 6.4 | 11.3 | 0.00 | 0.30 | 0.00 | 50 | 1018.8 |
| 20260503221033 | 11 | 67 | 6.4 | 11.3 | 0.00 | 0.30 | 0.00 | 50 | 1018.7 |
| 20260503220538 | 11 | 49 | 6.4 | 11.3 | 0.00 | 0.30 | 0.00 | 50 | 1018.7 |
| 20260503220042 | 11 | 38 | 4.8 | 12.9 | 0.00 | 0.30 | 0.00 | 50 | 1018.7 |
| 20260503215534 | 11 | 34 | 8.0 | 12.9 | 0.00 | 0.30 | 0.00 | 50 | 1018.7 |
| 20260503215040 | 11 | 12 | 8.0 | 12.9 | 0.00 | 0.30 | 0.00 | 50 | 1018.8 |
| 20260503214603 | 11 | 333 | 6.4 | 11.3 | 0.00 | 0.30 | 0.00 | 51 | 1018.6 |
| 20260503214030 | 10 | 30 | 6.4 | 11.3 | 0.00 | 0.30 | 0.00 | 52 | 1018.7 |
| 20260503213548 | 10 | 12 | 4.8 | 8.0 | 0.00 | 0.30 | 0.00 | 52 | 1018.7 |
| 20260503213037 | 11 | 69 | 3.2 | 12.9 | 0.00 | 0.30 | 0.00 | 52 | 1018.6 |
| 20260503212554 | 10 | 57 | 6.4 | 12.9 | 0.00 | 0.30 | 0.00 | 52 | 1018.6 |
| 20260503212041 | 11 | 35 | 4.8 | 11.3 | 0.00 | 0.30 | 0.00 | 51 | 1018.6 |
| 20260503211537 | 11 | 74 | 6.4 | 11.3 | 0.00 | 0.30 | 0.00 | 51 | 1018.8 |
| 20260503211029 | 11 | 38 | 1.6 | 12.9 | 0.00 | 0.30 | 0.00 | 51 | 1018.8 |
| 20260503210533 | 11 | 38 | 4.8 | 12.9 | 0.00 | 0.30 | 0.00 | 51 | 1018.8 |
| 20260503210044 | 11 | 85 | 6.4 | 11.3 | 0.00 | 0.30 | 0.05 | 51 | 1018.8 |
| 20260503205545 | 11 | 42 | 3.2 | 9.7 | 0.00 | 0.30 | 0.05 | 51 | 1018.8 |
| 20260503205041 | 11 | 50 | 4.8 | 9.7 | 0.00 | 0.30 | 0.05 | 51 | 1018.8 |
| 20260503204557 | 11 | 98 | 3.2 | 14.5 | 0.00 | 0.30 | 0.05 | 50 | 1018.8 |
| 20260503204032 | 11 | 15 | 8.0 | 12.9 | 0.00 | 0.30 | 0.05 | 50 | 1018.6 |
| 20260503203543 | 11 | 22 | 4.8 | 12.9 | 0.00 | 0.30 | 0.05 | 52 | 1018.6 |
| 20260503203055 | 11 | 337 | 8.0 | 12.9 | 0.00 | 0.30 | 0.05 | 51 | 1018.5 |
| 20260503202547 | 11 | 331 | 6.4 | 12.9 | 0.00 | 0.30 | 0.05 | 49 | 1018.6 |
| 20260503202047 | 12 | 346 | 8.0 | 12.9 | 0.00 | 0.30 | 0.05 | 49 | 1018.5 |
| 20260503201535 | 12 | 339 | 8.0 | 12.9 | 0.00 | 0.30 | 0.05 | 49 | 1018.6 |
| 20260503201106 | 12 | 336 | 8.0 | 12.9 | 0.00 | 0.30 | 0.05 | 50 | 1018.6 |
| 20260503200532 | 12 | 31 | 4.8 | 12.9 | 0.00 | 0.30 | 0.05 | 51 | 1018.6 |
| 20260503200054 | 12 | 340 | 6.4 | 9.7 | 0.00 | 0.30 | 0.05 | 51 | 1018.6 |
| 20260503195552 | 12 | 355 | 4.8 | 11.3 | 0.00 | 0.30 | 0.05 | 49 | 1018.6 |
| 20260503195052 | 12 | 302 | 6.4 | 11.3 | 0.00 | 0.30 | 0.05 | 49 | 1018.4 |
| 20260503194544 | 12 | 275 | 6.4 | 14.5 | 0.00 | 0.30 | 0.05 | 49 | 1018.3 |
| 20260503194110 | 12 | 315 | 8.0 | 14.5 | 0.00 | 0.30 | 0.05 | 48 | 1018.4 |
| 20260503193536 | 12 | 355 | 4.8 | 11.3 | 0.00 | 0.30 | 0.05 | 48 | 1018.2 |
| 20260503193041 | 12 | 336 | 4.8 | 8.0 | 0.00 | 0.30 | 0.05 | 49 | 1018.2 |
| 20260503192530 | 12 | 301 | 3.2 | 6.4 | 0.00 | 0.30 | 0.05 | 48 | 1018.1 |
| 20260503192055 | 12 | 105 | 3.2 | 6.4 | 0.00 | 0.30 | 0.05 | 49 | 1018.0 |
| 20260503191545 | 12 | 51 | 1.6 | 4.8 | 0.00 | 0.30 | 0.05 | 50 | 1017.8 |
| 20260503191047 | 12 | 355 | 1.6 | 6.4 | 0.00 | 0.30 | 0.05 | 51 | 1017.7 |
| 20260503190546 | 12 | 36 | 4.8 | 6.4 | 0.00 | 0.30 | 0.05 | 51 | 1017.7 |
| 20260503190047 | 12 | 26 | 1.6 | 6.4 | 0.00 | 0.30 | 0.05 | 52 | 1017.8 |
| 20260503185533 | 12 | 22 | 3.2 | 8.0 | 0.00 | 0.30 | 0.05 | 52 | 1017.9 |
| 20260503185046 | 12 | 32 | 3.2 | 8.0 | 0.00 | 0.30 | 0.05 | 53 | 1017.8 |
| 20260503184532 | 12 | 19 | 3.2 | 8.0 | 0.00 | 0.30 | 0.05 | 53 | 1017.8 |
| 20260503184046 | 12 | 351 | 4.8 | 9.7 | 0.00 | 0.30 | 0.05 | 54 | 1017.7 |
| 20260503183538 | 12 | 343 | 4.8 | 11.3 | 0.00 | 0.30 | 0.05 | 53 | 1017.7 |
| 20260503183103 | 12 | 338 | 3.2 | 11.3 | 0.00 | 0.30 | 0.05 | 53 | 1017.6 |
| 20260503182531 | 12 | 46 | 6.4 | 11.3 | 0.00 | 0.30 | 0.05 | 53 | 1017.5 |
| 20260503182053 | 12 | 73 | 6.4 | 14.5 | 0.00 | 0.30 | 0.05 | 54 | 1017.5 |
| 20260503181547 | 12 | 29 | 8.0 | 14.5 | 0.00 | 0.30 | 0.05 | 56 | 1017.5 |
| 20260503181037 | 12 | 14 | 8.0 | 12.9 | 0.00 | 0.30 | 0.05 | 55 | 1017.5 |
| 20260503180556 | 12 | 61 | 6.4 | 9.7 | 0.00 | 0.30 | 0.05 | 55 | 1017.4 |
| 20260503180045 | 12 | 330 | 1.6 | 9.7 | 0.00 | 0.30 | 0.05 | 55 | 1017.3 |
| 20260503175531 | 12 | 336 | 4.8 | 11.3 | 0.00 | 0.30 | 0.05 | 56 | 1017.2 |
| 20260503175032 | 12 | 360 | 6.4 | 9.7 | 0.00 | 0.30 | 0.05 | 56 | 1017.1 |
| 20260503174544 | 12 | 330 | 4.8 | 12.9 | 0.00 | 0.30 | 0.05 | 56 | 1016.8 |
| 20260503174034 | 12 | 23 | 8.0 | 12.9 | 0.00 | 0.30 | 0.05 | 56 | 1016.7 |
| 20260503173550 | 13 | 10 | 8.0 | 14.5 | 0.00 | 0.30 | 0.05 | 55 | 1016.7 |
| 20260503173033 | 13 | 60 | 8.0 | 14.5 | 0.00 | 0.30 | 0.05 | 55 | 1016.5 |
| 20260503172548 | 13 | 360 | 4.8 | 11.3 | 0.00 | 0.30 | 0.05 | 55 | 1016.5 |
| 20260503172033 | 13 | 342 | 4.8 | 11.3 | 0.00 | 0.30 | 0.05 | 54 | 1016.3 |
| 20260503171549 | 13 | 32 | 4.8 | 12.9 | 0.00 | 0.30 | 0.05 | 53 | 1016.2 |
| 20260503171044 | 14 | 15 | 8.0 | 12.9 | 0.00 | 0.30 | 0.05 | 52 | 1016.0 |
| 20260503170532 | 14 | 11 | 4.8 | 14.5 | 0.00 | 0.30 | 0.05 | 53 | 1015.9 |
| 20260503150534 | 15 | 37 | 16.1 | 32.2 | 0.00 | 0.30 | 0.05 | 48 | 1015.0 |
| 20260503131028 | 12 | 44 | 16.1 | 32.2 | 0.30 | 0.30 | 0.05 | 69 | 1014.5 |
| 20260503130536 | 13 | 17 | 19.3 | 32.2 | 0.30 | 0.30 | 0.05 | 69 | 1014.3 |
| 20260503110539 | 18 | 121 | 8.0 | 19.3 | 0.00 | 0.00 | 0.00 | 54 | 1013.1 |